CZ-2C R/B (43521 NORAD) Tracking and Keplerian Element Data

This shows tracking and keplerian element data for the satellite.

Feedback or suggestion? Click here.




ElementValue
Catalog43521
NameCZ-2C R/B
Epoch Orbit315
Epoch Day198.94816948
Epoch Year2018
RAAN174.9701
Inclination35.1551
Eccentricity0.0083528
Argument of Perigee61.3684
Mean Anonmoly299.5407
Mean Motion15.1037656
Decay Rate5.28E-06
L11 43521U 18054D 18198.94816948 .00000528 00000-0 31488-4 0 9992
L22 43521 35.1551 174.9701 0083528 61.3684 299.5407 15.10376560 3159

Live tracking and technical data element details for CZ-2C R/B (NORAD 43521). CZ-2C R/B can be tracked NOW for your location showing map with azimuth and elevation plus other details from your city location.

Track the satellite on the map from your city or location and see movement details for azimuth, elevation, latitude, longitude, range, height, and movement on the map or in text.







IsCatalogInMostPopularTable: catalog: 43521, numindb: 6
Update: records affected: 1



GetName: 43521 CZ-2C R/B

Hit Count: updated at: Thu, 19 Jul 2018 03:32:54 GMT